Regional Weather Roundup
Issued by NWS

Home | Current Version | Previous Version | Text Only | Print | Product List | Glossary On
Versions: 1 2 3 4 5 6 7 8 9 10 11 12 13 14 15 16 17 18 19 20 21 22 23 24 25 26 27 28 29 30 31 32 33 34 35 36 37 38 39 40 41 42 43 44 45 46 47 48 49 50
000
ASUS45 KSLC 230410
RWRUT

UTAH REGIONAL WEATHER ROUNDUP
NATIONAL WEATHER SERVICE SALT LAKE CITY UT
1000 PM MDT FRI SEP 22 2017

UTZ001>011-023>025-230500-

NORTHERN UTAH

CITY           SKY/WX    TMP DP  RH WIND       PRES   REMARKS
BRIGHAM CITY   PTCLDY    46  37  71 NW6       29.99F
HILL AFB       CLEAR     43  35  75 CALM      29.98S
LOGAN          MOCLDY    43  38  82 N9        30.01R
OGDEN          CLEAR     42  38  85 S6        29.97S
SALT LAKE CITY CLEAR     47  39  74 N7        29.96F
TOOELE VALLEY  MOCLDY    43  39  87 CALM      29.99S
WENDOVER       CLEAR     40  37  89 CALM      30.00R
HEBER CITY     CLEAR     37  34  87 CALM      29.97R
WEST JORDAN    CLEAR     44  42  95 W7        29.98F

$$

UTZ011>015-024>027-230500-

CENTRAL/NORTHEAST UTAH

CITY           SKY/WX    TMP DP  RH WIND       PRES   REMARKS
PROVO AIRPORT  CLEAR     45  38  76 N7        29.97S
MOAB/CANYONLAN PTCLDY    64  31  28 W17       29.74R
DELTA          CLOUDY    43  36  75 N7        29.96S
PRICE          PTCLDY    50  28  42 NW12G21   29.87R
RICHFIELD      CLEAR     45  37  76 CALM      29.96R
ROOSEVELT      MOCLDY    50  32  50 SW14      29.88S
VERNAL         CLEAR     52  35  52 N10       29.87R

$$

UTZ013>016-019>022-027-230500-

SOUTHERN UTAH

CITY           SKY/WX    TMP DP  RH WIND       PRES   REMARKS
BRYCE CANYON   CLEAR     38  25  59 N3        29.93F
CEDAR CITY     CLEAR     42  38  85 NW3       29.91R
MILFORD        CLEAR     44  40  85 N14       29.92R
ST GEORGE      CLEAR     63  21  20 SW7       29.79S
HANKSVILLE     CLEAR     59  30  33 N9        29.80R
KANAB          CLEAR     46  21  36 CALM      29.89R
BLANDING         N/A     60  31  32 SW8       29.92S

$$

REGIONAL REPORTS     COLORADO/ARIZONA

CITY           SKY/WX    TMP DP  RH WIND       PRES   REMARKS
CRAIG, CO      MOCLDY    58  33  39 S12       29.88F
GRAND JUNCTION PTCLDY    69  31  24 S10       29.77S
RIFLE, CO      MOCLDY    61  41  47 S7        29.84S
MONTROSE, CO   MOCLDY    60  42  51 SE5       29.86S
CORTEZ, CO     CLEAR     57  30  35 S7        29.88R
PAGE, AZ       CLEAR     64  23  21 W7        29.78R
GRAND CANYON   CLEAR     40  14  34 CALM      29.93R
KINGMAN, AZ    CLEAR     54  21  27 E6        29.81R
FLAGSTAFF, AZ  CLEAR     50  31  48 W8        29.94S

$$

REGIONAL REPORTS    NEVADA/IDAHO/WYOMING

CITY           SKY/WX    TMP DP  RH WIND       PRES   REMARKS
LAS VEGAS, NV  PTCLDY    70  26  19 W8        29.75S
ELY, NY        CLEAR     32  31  96 N7        30.01R WCI  26
ELKO, NV       PTCLDY    36  33  89 E5        30.00R WCI  32
POCATELLO, ID  CLOUDY    38  34  85 S7        30.00S WCI  33
BURLEY, ID     CLEAR     39  35  86 SW5       30.00R
FORT BRIDGER,  CLOUDY    37  37 100 W7        30.03S WCI  32
EVANSTON, WY   CLOUDY    36  34  92 CALM      30.00S
ROCK SPRINGS,  RAIN      35  34  96 NW13      30.02S WCI  26
KEMMERER, WY     N/A     36  34  93 CALM      30.02R

$$



USA.gov is the U.S. government's official web portal to all federal, state and local government web resources and services.